This is the latest recevied weather packets stored in our database for station/object W4MSI. If no packets are shown the sender has not sent any weather packets the latest 1 day(s).
| Time | Temp. | Humidity | Pressure | Rain* | Wind** | Luminosity | Snow |
|---|---|---|---|---|---|---|---|
| 1777979620 | 14.44° C | 76% | 1009.4 hPa | 0 mm | 0.45 m/s, 173° | 10 W/m² | - |
| 1777979316 | 14.44° C | 76% | 1009.4 hPa | 0 mm | 0 m/s | 10 W/m² | - |
| 1777979014 | 14.44° C | 76% | 1009.5 hPa | 0 mm | 0 m/s | 6 W/m² | - |
| 1777978710 | 14.44° C | 77% | 1009.4 hPa | 0 mm | 0 m/s | 3 W/m² | - |
| 1777978407 | 14.44° C | 77% | 1009.5 hPa | 0 mm | 0.45 m/s, 192° | 2 W/m² | - |
| 1777978103 | 14.44° C | 77% | 1009.5 hPa | 0 mm | 0 m/s | 1 W/m² | - |
| 1777977801 | 14.44° C | 76% | 1009.5 hPa | 0 mm | 0 m/s | 1 W/m² | - |
| 1777977497 | 14.44° C | 75% | 1009.4 hPa | 0 mm | 0 m/s | 0 W/m² | - |
| 1777977194 | 15° C | 75% | 1009.6 hPa | 0 mm | 0 m/s | 0 W/m² | - |
| 1777976892 | 15° C | 74% | 1009.4 hPa | 0 mm | 0 m/s | 0 W/m² | - |
| 1777976589 | 15° C | 74% | 1009.4 hPa | 0 mm | 1.34 m/s, 213° | 0 W/m² | - |
| 1777976289 | 15° C | 73% | 1009.4 hPa | 0 mm | 0 m/s | 0 W/m² | - |
| 1777975984 | 15° C | 72% | 1009.4 hPa | 0 mm | 0.89 m/s, 190° | 0 W/m² | - |
| 1777975681 | 15.56° C | 72% | 1009.3 hPa | 0 mm | 0 m/s | 0 W/m² | - |
| 1777975377 | 15.56° C | 71% | 1009.4 hPa | 0 mm | 0.45 m/s, 180° | 0 W/m² | - |
| 1777975073 | 15.56° C | 71% | 1009.3 hPa | 0 mm | 1.34 m/s, 202° | 0 W/m² | - |
| 1777974771 | 15.56° C | 71% | 1009.2 hPa | 0 mm | 0.89 m/s, 173° | 0 W/m² | - |
| 1777974466 | 15.56° C | 70% | 1009.2 hPa | 0 mm | 0.89 m/s, 174° | 0 W/m² | - |
| 1777974163 | 15.56° C | 70% | 1009.2 hPa | 0 mm | 1.34 m/s, 208° | 0 W/m² | - |
| 1777973859 | 15.56° C | 70% | 1009.5 hPa | 0 mm | 0.89 m/s, 217° | 0 W/m² | - |
| 1777973557 | 15.56° C | 70% | 1009.3 hPa | 0 mm | 0.89 m/s, 209° | 0 W/m² | - |
| 1777973253 | 15.56° C | 70% | 1009.3 hPa | 0 mm | 0.45 m/s, 185° | 0 W/m² | - |
| 1777972952 | 16.11° C | 69% | 1009.3 hPa | 0 mm | 1.34 m/s, 200° | 0 W/m² | - |
| 1777972649 | 16.11° C | 69% | 1009.4 hPa | 0 mm | 1.34 m/s, 206° | 0 W/m² | - |
| 1777972347 | 16.11° C | 68% | 1009.3 hPa | 0 mm | 1.34 m/s, 211° | 0 W/m² | - |
* Rain latest hour (hover to see other rain measurements)
** Current wind speed in m/s (hover to see current wind gust speed)